This demonstration page uses our WeatherBlox Daily Observations layout. Learn more.

Left ArrowRight Arrow

39.51506, -84.39828

Hourly Observations for September 19, 2016

Temp ( °F °C ) Dew Point ( °F °C ) Humidity (%) Winds ( mph kmh ) Pressure ( in mb ) Visibility ( mi km ) Precip ( " mm )
12:15 am 00:15 Partly Cloudy 69 20.8 62 16.5 77 77 NNW 3 6 30.00 1016 10 16 N/A
12:35 am 00:35 Partly Cloudy 69 20.8 62 16.4 76 76 N N/A 30.00 1016 10 16 N/A
12:55 am 00:55 Mostly Cloudy 69 20.8 62 16.6 77 77 N N/A 30.00 1016 10 16 N/A
1:15 am 01:15 Partly Cloudy 69 20.8 62 16.8 78 78 N N/A 30.00 1016 10 16 N/A
1:35 am 01:35 Clear 69 20.4 62 16.9 80 80 N N/A 29.97 1015 10 16 N/A
1:55 am 01:55 Clear 69 20.8 63 17.1 79 79 NNW 3 6 29.97 1015 10 16 N/A
2:15 am 02:15 Clear 67 19.5 61 16.2 81 81 N N/A 29.97 1015 10 16 N/A
2:35 am 02:35 Clear 69 20.6 62 16.8 79 79 N 3 6 30.00 1016 10 16 N/A
2:55 am 02:55 Clear 64 18 58 14.7 81 81 N 3 6 30.00 1016 10 16 N/A
3:15 am 03:15 Clear 67 19.5 61 16.1 81 81 N 3 6 30.00 1016 10 16 N/A
3:35 am 03:35 Clear 64 17.9 59 14.8 82 82 N N/A 30.00 1016 10 16 N/A
3:55 am 03:55 Clear 64 18 59 15.1 83 83 N N/A 30.00 1016 10 16 N/A
4:15 am 04:15 Clear 64 17.6 58 14.7 83 83 N N/A 30.00 1016 10 16 N/A
4:35 am 04:35 Clear 62 16.8 57 14 84 84 N N/A 30.00 1016 10 16 N/A
4:55 am 04:55 Clear 62 16.9 57 14 83 83 N N/A 30.00 1016 10 16 N/A
5:15 am 05:15 Clear 63 17 57 14.1 83 83 N N/A 30.00 1016 10 16 N/A
5:35 am 05:35 Clear 64 17.9 59 15 83 83 N N/A 30.00 1016 10 16 N/A
5:55 am 05:55 Hazy 62 16.6 57 13.9 84 84 N N/A 30.00 1016 4 6 N/A
6:15 am 06:15 Mostly Cloudy with Haze 62 16.6 57 14 85 85 N N/A 30.00 1016 2 2 N/A
6:35 am 06:35 Mostly Cloudy with Mist and Fog 61 16.2 56 13.6 85 85 N N/A 30.03 1017 2 2 N/A
6:55 am 06:55 Hazy 61 16 56 13.3 84 84 N N/A 30.03 1017 4 6 N/A
7:15 am 07:15 Mostly Cloudy with Haze 61 16 56 13.5 85 85 N N/A 30.03 1017 1 1 N/A
7:35 am 07:35 Hazy 61 16 56 13.5 85 85 N N/A 30.03 1017 2 3 N/A
7:55 am 07:55 Hazy 61 16 56 13.5 85 85 N N/A 30.03 1017 2 3 N/A
8:15 am 08:15 Sunny 62 16.7 58 14.2 85 85 N N/A 30.06 1018 10 16 N/A
8:35 am 08:35 Sunny 64 18 60 15.5 85 85 N N/A 30.06 1018 10 16 N/A
8:55 am 08:55 Sunny 68 20 62 16.7 81 81 N N/A 30.06 1018 10 16 N/A
9:15 am 09:15 Sunny 69 20.8 62 16.9 78 78 N N/A 30.06 1018 10 16 N/A
9:35 am 09:35 Sunny 69 20.8 61 16.3 76 76 N N/A 30.06 1018 10 16 N/A
9:55 am 09:55 Sunny 74 23.3 64 18 72 72 N N/A 30.06 1018 10 16 N/A
10:15 am 10:15 Sunny 74 23.6 63 17.4 68 68 N N/A 30.06 1018 10 16 N/A
10:35 am 10:35 Sunny 75 23.7 63 17 66 66 ENE 3 6 30.06 1018 10 16 N/A
10:55 am 10:55 Sunny 77 25.1 62 16.8 60 60 NNE 5 7 30.06 1018 10 16 N/A
11:15 am 11:15 Sunny 78 25.5 61 15.9 55 55 NE 6 9 30.06 1018 10 16 N/A
11:35 am 11:35 Sunny 80 26.5 60 15.6 51 51 N N/A 30.06 1018 10 16 N/A
11:55 am 11:55 Sunny 80 26.5 59 15 49 49 NE 6 9 30.06 1018 10 16 N/A
12:15 pm 12:15 Sunny 80 26.5 58 14.4 47 47 N N/A 30.06 1018 10 16 N/A
12:35 pm 12:35 Sunny 81 27.2 57 13.7 43 43 E 3 6 30.06 1018 10 16 N/A
12:55 pm 12:55 Partly Cloudy 81 27.2 57 13.7 43 43 NE 7 11 30.06 1018 10 16 N/A
1:15 pm 13:15 Partly Cloudy 81 27.2 55 12.9 41 41 N N/A 30.06 1018 10 16 N/A
1:35 pm 13:35 Partly Cloudy 82 28 55 12.7 39 39 N 3 6 30.06 1018 10 16 N/A
1:55 pm 13:55 Partly Cloudy 82 28 56 13.2 40 40 N N/A 30.06 1018 10 16 N/A
2:15 pm 14:15 Partly Cloudy 82 28 54 12.4 38 38 N N/A 30.06 1018 10 16 N/A
2:35 pm 14:35 Partly Cloudy 82 28 55 12.5 38 38 N N/A 30.06 1018 10 16 N/A
2:55 pm 14:55 Sunny 82 28 52 11.3 35 35 N 5 7 30.03 1017 10 16 N/A
3:15 pm 15:15 Sunny 83 28.1 53 11.5 36 36 S 5 7 30.03 1017 10 16 N/A
3:35 pm 15:35 Sunny 83 28.6 54 12 36 36 N N/A 30.00 1016 10 16 N/A
3:55 pm 15:55 Sunny 84 28.8 52 11.3 34 34 W 3 6 30.00 1016 10 16 N/A
4:15 pm 16:15 Sunny 83 28.6 51 10.8 33 33 N N/A 30.00 1016 10 16 N/A
4:35 pm 16:35 Sunny 83 28.6 50 10 31 31 W 3 6 30.00 1016 10 16 N/A
4:55 pm 16:55 Sunny 83 28.6 51 10.8 33 33 N N/A 30.00 1016 10 16 N/A
5:15 pm 17:15 Sunny 84 28.7 49 9.3 30 30 NW 5 7 30.00 1016 10 16 N/A
5:35 pm 17:35 Sunny 84 28.8 50 10.1 31 31 N N/A 30.00 1016 10 16 N/A
5:55 pm 17:55 Sunny 83 28.6 49 9.3 30 30 N N/A 30.00 1016 10 16 N/A
6:15 pm 18:15 Sunny 83 28.2 52 11.1 35 35 N N/A 30.03 1017 10 16 N/A
6:35 pm 18:35 Sunny 83 28.2 53 11.8 36 36 N N/A 30.03 1017 10 16 N/A
6:55 pm 18:55 Sunny 81 27.2 63 17.1 54 54 N N/A 30.03 1017 10 16 N/A
7:15 pm 19:15 Sunny 77 25.1 64 17.5 63 63 N N/A 30.03 1017 10 16 N/A
7:35 pm 19:35 Sunny 74 23.4 65 18.3 73 73 N N/A 30.03 1017 10 16 N/A
7:55 pm 19:55 Clear 72 22.1 64 17.8 77 77 N N/A 30.03 1017 10 16 N/A
8:15 pm 20:15 Clear 69 20.8 61 16.2 75 75 N N/A 30.06 1018 10 16 N/A
8:35 pm 20:35 Clear 69 20.8 60 15.8 73 73 N N/A 30.06 1018 10 16 N/A
8:55 pm 20:55 Clear 69 20.8 63 17 79 79 N N/A 30.06 1018 10 16 N/A
9:15 pm 21:15 Clear 67 19.5 61 16 80 80 N N/A 30.06 1018 10 16 N/A
9:35 pm 21:35 Clear 67 19.5 60 15.7 79 79 N N/A 30.06 1018 10 16 N/A
9:55 pm 21:55 Clear 67 19.5 60 15.5 78 78 N N/A 30.06 1018 10 16 N/A
10:15 pm 22:15 Clear 66 18.9 60 15.4 80 80 N N/A 30.06 1018 10 16 N/A
10:35 pm 22:35 Clear 64 18 58 14.6 81 81 NNW 3 6 30.06 1018 10 16 N/A
10:55 pm 22:55 Clear 64 17.6 58 14.4 82 82 N N/A 30.06 1018 10 16 N/A
11:15 pm 23:15 Clear 63 17 57 13.7 81 81 N N/A 30.09 1019 10 16 N/A
11:35 pm 23:35 Clear 62 16.6 56 13.6 83 83 N N/A 30.09 1019 10 16 N/A
11:55 pm 23:55 Clear 64 17.5 58 14.5 83 83 N 3 6 30.09 1019 10 16 N/A

Powered by AerisWeather